sat.trackr.live / text

‹ back to catalog

STARLINK-35417

NORAD 66335 · 2025-253S

PAYLOAD ACTIVE UNKNOWN

§ Identity

Operator
Country
US
Launch date
2025-11-06
Launch site
AFETR
Launch vehicle
Mass (kg)
RCS (m²)

Purposes: comms

External: N2YO · Heavens-Above · Gunter

§ Orbital elements

Epoch: 2026-09-20T03:30:35.422848Z

Period
94.27 min
Inclination
43.0001°
Eccentricity
0.0001649
Mean motion
15.27584899 rev/d
Perigee alt
481.9 km
Apogee alt
484.2 km
Semi-major
6,861.2 km
B*
5.1082e-4
RAAN
194.3625°
Arg perigee
266.4362°
Mean anomaly
93.6301°
Rev number
4,998

§ Raw data

STARLINK-354171 66335U 25253S   26263.14624332  .00013823  00000+0  51082-3 0  99992 66335  43.0001 194.3625 0001649 266.4362  93.6301 15.27584899 49982

JSON: /api/v1/satellites/66335 · /tle

For live sub-satellite position, see the globe view (requires WebGL).

§ Visibility from observer

Set your observer location to see the next 7 days of passes ≥ 10°. The values pass through the URL so the page stays shareable.

No JS? Fill the form by hand. The geolocation button needs JavaScript.